Location: *
(43.4667°N, 11.6833°E)
Time: 18:26:19
(UTC+00:00)

NOSS 0 Rocket - Pass Details

Date: 19 July 2019
Orbit: 937 x 952 km, 70.0° (Epoch: 23 August)

Event Time Altitude Azimuth Distance (km) Brightness Sun altitude
Exits shadow 22:22:15 37° 221° (SW) 1,419 4.6 -24.4°
Maximum altitude 22:24:48 74° 297° (WNW) 980 4.0 -24.5°
Drops below altitude 10° 22:30:58 10° 23° (NNE) 2,660 7.0 -24.8°
Sets 22:33:31 0° 26° (NNE) 3,607 7.8 -24.9°
